When you browse on this site, cookies collect data to enhance your experience and personalize the content and advertising you see.
Visit our Privacy Policy to learn more. By continuing to use the site, you agree to this use of cookies and data.
  • In Hungary
  • List of Countries
  • For 7 days
  • Water Temperature
  • Satellite Maps
  • Weather Map
  • News
  • Weather Widgets
  • user-avatar
    Login

    Hourly Weather Moreira Sales

    Today, 19 January, Saturday

    Time Temperature Precipitation Wind Pressure Humidity
    00:00 +25°C° 0.1 mm 1 mps 720 mmHg 88%
    01:00 +25°C° 0.1 mm 1 mps 720 mmHg 88%
    02:00 +23°C° 0.1 mm 0 mps 720 mmHg 88%
    03:00 +24°C° 0.2 mm 1 mps 720 mmHg 89%
    04:00 +24°C° 0.2 mm 1 mps 720 mmHg 90%
    05:00 +24°C° 0.2 mm 1 mps 720 mmHg 90%
    06:00 +25°C° 0.5 mm 1 mps 720 mmHg 88%
    07:00 +26°C° 0.5 mm 1 mps 721 mmHg 85%
    08:00 +28°C° 0.5 mm 2 mps 721 mmHg 82%
    09:00 +29°C° 3.1 mm 2 mps 721 mmHg 79%
    10:00 +29°C° 3.1 mm 1 mps 721 mmHg 77%
    11:00 +30°C° 3.1 mm 1 mps 721 mmHg 74%
    12:00 +30°C° 2.3 mm 1 mps 721 mmHg 75%
    13:00 +30°C° 2.3 mm 1 mps 720 mmHg 77%
    14:00 +29°C° 2.3 mm 1 mps 720 mmHg 78%
    15:00 +28°C° 0.1 mm 2 mps 720 mmHg 81%
    16:00 +28°C° 0.1 mm 2 mps 720 mmHg 84%
    17:00 +27°C° 0.1 mm 2 mps 719 mmHg 88%
    18:00 +26°C° 0 mm 2 mps 720 mmHg 89%
    19:00 +25°C° 0 mm 1 mps 720 mmHg 89%
    20:00 +25°C° 0 mm 1 mps 720 mmHg 90%
    21:00 +25°C° 0 mm 1 mps 720 mmHg 90%
    22:00 +24°C° 0 mm 1 mps 720 mmHg 90%
    23:00 +22°C° 0 mm 0 mps 720 mmHg 89%

    Tomorrow, 20 January, Sunday

    Time Temperature Precipitation Wind Pressure Humidity
    00:00 +22°C° 0 mm 0 mps 720 mmHg 91%
    01:00 +21°C° 0 mm 0 mps 719 mmHg 92%
    02:00 +21°C° 0 mm 0 mps 719 mmHg 93%
    03:00 +21°C° 0 mm 0 mps 719 mmHg 93%
    04:00 +21°C° 0 mm 0 mps 719 mmHg 94%
    05:00 +21°C° 0 mm 0 mps 719 mmHg 94%
    06:00 +22°C° 0 mm 0 mps 720 mmHg 89%
    07:00 +24°C° 0 mm 0 mps 721 mmHg 83%
    08:00 +26°C° 0 mm 0 mps 721 mmHg 78%
    09:00 +29°C° 0.2 mm 1 mps 721 mmHg 74%
    10:00 +30°C° 0.2 mm 1 mps 721 mmHg 69%
    11:00 +31°C° 0.2 mm 2 mps 721 mmHg 64%
    12:00 +32°C° 0.4 mm 2 mps 720 mmHg 64%
    13:00 +32°C° 0.4 mm 2 mps 720 mmHg 63%
    14:00 +32°C° 0.4 mm 2 mps 720 mmHg 62%
    15:00 +32°C° 0.1 mm 2 mps 719 mmHg 64%
    16:00 +32°C° 0.1 mm 1 mps 719 mmHg 67%
    17:00 +32°C° 0.1 mm 1 mps 719 mmHg 69%
    18:00 +30°C° 0.8 mm 1 mps 719 mmHg 75%
    19:00 +28°C° 0.8 mm 1 mps 719 mmHg 82%
    20:00 +26°C° 0.8 mm 2 mps 720 mmHg 88%
    21:00 +25°C° 0.2 mm 2 mps 720 mmHg 89%
    22:00 +25°C° 0.2 mm 2 mps 720 mmHg 91%
    23:00 +25°C° 0.2 mm 2 mps 720 mmHg 92%

    Day after tomorrow, 21 January, Monday

    Time Temperature Precipitation Wind Pressure Humidity
    00:00 +25°C° 0 mm 2 mps 720 mmHg 92%
    01:00 +24°C° 0 mm 2 mps 719 mmHg 92%
    02:00 +24°C° 0 mm 2 mps 719 mmHg 93%
    03:00 +24°C° 0 mm 2 mps 719 mmHg 93%
    04:00 +24°C° 0 mm 2 mps 719 mmHg 94%
    05:00 +24°C° 0 mm 2 mps 720 mmHg 95%
    06:00 +25°C° 0.1 mm 2 mps 720 mmHg 90%
    07:00 +27°C° 0.1 mm 2 mps 721 mmHg 86%
    08:00 +29°C° 0.1 mm 2 mps 722 mmHg 81%
    09:00 +30°C° 0.3 mm 2 mps 722 mmHg 74%
    10:00 +31°C° 0.3 mm 3 mps 722 mmHg 68%
    11:00 +34°C° 0.3 mm 3 mps 722 mmHg 61%
    12:00 +33°C° 0.8 mm 3 mps 721 mmHg 63%
    13:00 +33°C° 0.8 mm 3 mps 721 mmHg 64%
    14:00 +33°C° 0.8 mm 3 mps 721 mmHg 66%
    15:00 +32°C° 0.3 mm 2 mps 720 mmHg 68%
    16:00 +32°C° 0.3 mm 1 mps 720 mmHg 70%
    17:00 +31°C° 0.3 mm 1 mps 720 mmHg 73%
    18:00 +30°C° 0.7 mm 1 mps 720 mmHg 77%
    19:00 +28°C° 0.7 mm 1 mps 721 mmHg 80%
    20:00 +27°C° 0.7 mm 2 mps 721 mmHg 84%
    21:00 +26°C° 0 mm 2 mps 721 mmHg 86%
    22:00 +26°C° 0 mm 2 mps 721 mmHg 87%
    23:00 +26°C° 0 mm 2 mps 721 mmHg 88%

    22 January, Tuesday

    Time Temperature Precipitation Wind Pressure Humidity
    00:00 +25°C° 0 mm 2 mps 721 mmHg 89%
    01:00 +25°C° 0 mm 2 mps 720 mmHg 89%
    02:00 +25°C° 0 mm 2 mps 720 mmHg 90%
    03:00 +25°C° 0 mm 2 mps 720 mmHg 91%
    04:00 +24°C° 0 mm 2 mps 721 mmHg 91%
    05:00 +24°C° 0 mm 2 mps 721 mmHg 92%
    06:00 +26°C° 0.1 mm 2 mps 721 mmHg 87%
    07:00 +28°C° 0.1 mm 2 mps 722 mmHg 82%
    08:00 +30°C° 0.1 mm 2 mps 722 mmHg 77%
    09:00 +31°C° 0.3 mm 2 mps 722 mmHg 71%
    10:00 +33°C° 0.3 mm 3 mps 722 mmHg 66%
    11:00 +34°C° 0.3 mm 3 mps 722 mmHg 60%
    12:00 +34°C° 0.3 mm 3 mps 721 mmHg 60%
    13:00 +35°C° 0.3 mm 2 mps 721 mmHg 60%
    14:00 +35°C° 0.3 mm 2 mps 720 mmHg 60%
    15:00 +34°C° 0.3 mm 2 mps 720 mmHg 63%
    16:00 +33°C° 0.3 mm 1 mps 720 mmHg 66%
    17:00 +33°C° 0.3 mm 1 mps 720 mmHg 69%
    18:00 +31°C° 0.1 mm 1 mps 720 mmHg 73%
    19:00 +29°C° 0.1 mm 2 mps 720 mmHg 77%
    20:00 +27°C° 0.1 mm 2 mps 721 mmHg 81%
    21:00 +27°C° 0 mm 2 mps 721 mmHg 83%
    22:00 +27°C° 0 mm 2 mps 721 mmHg 84%
    23:00 +26°C° 0 mm 2 mps 721 mmHg 85%

    23 January, Wednesday

    Time Temperature Precipitation Wind Pressure Humidity
    00:00 +26°C° 0 mm 2 mps 721 mmHg 86%
    01:00 +26°C° 0 mm 2 mps 720 mmHg 87%
    02:00 +25°C° 0 mm 2 mps 720 mmHg 88%
    03:00 +25°C° 0 mm 2 mps 720 mmHg 88%
    04:00 +25°C° 0 mm 2 mps 720 mmHg 89%
    05:00 +25°C° 0 mm 2 mps 721 mmHg 89%
    06:00 +27°C° 0 mm 2 mps 721 mmHg 84%
    07:00 +28°C° 0 mm 1 mps 722 mmHg 79%
    08:00 +30°C° 0 mm 1 mps 723 mmHg 73%
    09:00 +31°C° 0.4 mm 1 mps 722 mmHg 70%
    10:00 +32°C° 0.4 mm 1 mps 722 mmHg 68%
    11:00 +33°C° 0.4 mm 1 mps 722 mmHg 65%
    12:00 +33°C° 2.1 mm 1 mps 721 mmHg 65%
    13:00 +32°C° 2.1 mm 1 mps 721 mmHg 65%
    14:00 +32°C° 2.1 mm 1 mps 721 mmHg 65%
    15:00 +32°C° 0 mm 1 mps 721 mmHg 67%
    16:00 +32°C° 0 mm 1 mps 721 mmHg 68%
    17:00 +32°C° 0 mm 1 mps 720 mmHg 69%
    18:00 +30°C° 0 mm 1 mps 720 mmHg 75%
    19:00 +29°C° 0 mm 2 mps 720 mmHg 80%
    20:00 +27°C° 0 mm 2 mps 720 mmHg 86%
    21:00 +27°C° 0 mm 2 mps 720 mmHg 85%
    22:00 +27°C° 0 mm 2 mps 720 mmHg 84%
    23:00 +27°C° 0 mm 2 mps 721 mmHg 84%

    24 January, Thursday

    Time Temperature Precipitation Wind Pressure Humidity
    00:00 +26°C° 0 mm 2 mps 720 mmHg 83%
    01:00 +26°C° 0 mm 2 mps 720 mmHg 82%
    02:00 +26°C° 0 mm 1 mps 719 mmHg 81%
    03:00 +25°C° 0 mm 1 mps 719 mmHg 83%
    04:00 +25°C° 0 mm 1 mps 720 mmHg 85%
    05:00 +25°C° 0 mm 1 mps 720 mmHg 87%
    06:00 +26°C° 0 mm 2 mps 721 mmHg 83%
    07:00 +28°C° 0 mm 2 mps 721 mmHg 79%
    08:00 +29°C° 0 mm 2 mps 722 mmHg 75%
    09:00 +31°C° 0 mm 2 mps 721 mmHg 69%
    10:00 +32°C° 0 mm 2 mps 721 mmHg 64%
    11:00 +34°C° 0 mm 2 mps 721 mmHg 58%
    12:00 +35°C° 0 mm 2 mps 720 mmHg 57%
    13:00 +35°C° 0 mm 2 mps 720 mmHg 55%
    14:00 +36°C° 0 mm 2 mps 719 mmHg 53%
    15:00 +35°C° 0.2 mm 1 mps 719 mmHg 56%
    16:00 +34°C° 0.2 mm 1 mps 719 mmHg 60%
    17:00 +34°C° 0.2 mm 1 mps 719 mmHg 63%
    18:00 +32°C° 0 mm 1 mps 719 mmHg 68%
    19:00 +30°C° 0 mm 2 mps 719 mmHg 72%
    20:00 +28°C° 0 mm 2 mps 719 mmHg 77%
    21:00 +27°C° 1.1 mm 3 mps 719 mmHg 81%
    22:00 +27°C° 1.1 mm 3 mps 720 mmHg 85%
    23:00 +26°C° 1.1 mm 4 mps 720 mmHg 89%
    Show more